When you browse on this site, cookies collect data to enhance your experience and personalize the content and advertising you see.
Visit our Privacy Policy to learn more. By continuing to use the site, you agree to this use of cookies and data.
  • în România
  • Lista ţărilor
  • Pe 7 zile
  • Temperatura apei
  • Hartă satelitară
  • Meteo pe hartă
  • Widget-uri
  • user-avatar
    Intrare

    Meteo pe oră la Algiers

    Astăzi, 27 Iunie, Joi

    Timp Temperatura Precipitaţii Vânt Presiune Umiditate
    00:00 +32°C° 0 mm 5 m/s 749 mmHg 36%
    01:00 +32°C° 0 mm 5 m/s 749 mmHg 34%
    02:00 +30°C° 0 mm 4 m/s 748 mmHg 32%
    03:00 +30°C° 0 mm 4 m/s 748 mmHg 29%
    04:00 +32°C° 0 mm 4 m/s 748 mmHg 29%
    05:00 +32°C° 0 mm 4 m/s 748 mmHg 29%
    06:00 +32°C° 0 mm 4 m/s 749 mmHg 29%
    07:00 +33°C° 0 mm 4 m/s 749 mmHg 31%
    08:00 +33°C° 0 mm 4 m/s 749 mmHg 34%
    09:00 +34°C° 0 mm 4 m/s 749 mmHg 37%
    10:00 +34°C° 0 mm 4 m/s 749 mmHg 40%
    11:00 +34°C° 0 mm 4 m/s 749 mmHg 42%
    12:00 +34°C° 0 mm 4 m/s 749 mmHg 44%
    13:00 +34°C° 0 mm 4 m/s 749 mmHg 44%
    14:00 +34°C° 0 mm 4 m/s 748 mmHg 43%
    15:00 +33°C° 0 mm 4 m/s 748 mmHg 43%
    16:00 +33°C° 0 mm 5 m/s 748 mmHg 45%
    17:00 +32°C° 0 mm 5 m/s 748 mmHg 47%
    18:00 +30°C° 0 mm 5 m/s 748 mmHg 49%
    19:00 +29°C° 0 mm 5 m/s 748 mmHg 53%
    20:00 +28°C° 0 mm 5 m/s 748 mmHg 56%
    21:00 +27°C° 0 mm 5 m/s 749 mmHg 60%
    22:00 +27°C° 0 mm 5 m/s 749 mmHg 61%
    23:00 +27°C° 0 mm 5 m/s 748 mmHg 61%

    Mâine, 28 Iunie, Vineri

    Timp Temperatura Precipitaţii Vânt Presiune Umiditate
    00:00 +26°C° 0 mm 6 m/s 748 mmHg 62%
    01:00 +26°C° 0 mm 5 m/s 748 mmHg 61%
    02:00 +26°C° 0 mm 4 m/s 747 mmHg 61%
    03:00 +26°C° 0 mm 3 m/s 747 mmHg 60%
    04:00 +26°C° 0 mm 3 m/s 747 mmHg 57%
    05:00 +27°C° 0 mm 2 m/s 748 mmHg 55%
    06:00 +27°C° 0 mm 2 m/s 748 mmHg 53%
    07:00 +29°C° 0 mm 2 m/s 748 mmHg 47%
    08:00 +30°C° 0 mm 2 m/s 748 mmHg 42%
    09:00 +32°C° 0 mm 2 m/s 748 mmHg 36%
    10:00 +33°C° 0 mm 3 m/s 748 mmHg 38%
    11:00 +33°C° 0 mm 4 m/s 748 mmHg 39%
    12:00 +33°C° 0 mm 4 m/s 747 mmHg 41%
    13:00 +33°C° 0 mm 5 m/s 747 mmHg 41%
    14:00 +33°C° 0 mm 6 m/s 747 mmHg 41%
    15:00 +33°C° 0 mm 7 m/s 747 mmHg 41%
    16:00 +33°C° 0 mm 7 m/s 747 mmHg 43%
    17:00 +32°C° 0 mm 7 m/s 747 mmHg 44%
    18:00 +31°C° 0 mm 8 m/s 747 mmHg 46%
    19:00 +30°C° 0 mm 7 m/s 747 mmHg 48%
    20:00 +29°C° 0 mm 6 m/s 747 mmHg 51%
    21:00 +28°C° 0 mm 5 m/s 747 mmHg 53%
    22:00 +28°C° 0 mm 5 m/s 747 mmHg 54%
    23:00 +28°C° 0 mm 4 m/s 747 mmHg 54%

    Poimâine, 29 Iunie, Sâmbătă

    Timp Temperatura Precipitaţii Vânt Presiune Umiditate
    00:00 +27°C° 0 mm 3 m/s 747 mmHg 54%
    01:00 +27°C° 0 mm 3 m/s 747 mmHg 53%
    02:00 +27°C° 0 mm 3 m/s 746 mmHg 51%
    03:00 +27°C° 0 mm 3 m/s 746 mmHg 50%
    04:00 +28°C° 0 mm 3 m/s 746 mmHg 48%
    05:00 +28°C° 0 mm 3 m/s 747 mmHg 46%
    06:00 +29°C° 0 mm 3 m/s 747 mmHg 44%
    07:00 +30°C° 0 mm 3 m/s 747 mmHg 41%
    08:00 +31°C° 0 mm 3 m/s 747 mmHg 38%
    09:00 +34°C° 0 mm 3 m/s 748 mmHg 36%
    10:00 +34°C° 0 mm 4 m/s 747 mmHg 37%
    11:00 +34°C° 0 mm 4 m/s 747 mmHg 38%
    12:00 +34°C° 0 mm 4 m/s 747 mmHg 39%
    13:00 +34°C° 0 mm 4 m/s 747 mmHg 39%
    14:00 +34°C° 0 mm 4 m/s 746 mmHg 39%
    15:00 +34°C° 0 mm 4 m/s 746 mmHg 38%
    16:00 +34°C° 0 mm 4 m/s 746 mmHg 41%
    17:00 +33°C° 0 mm 4 m/s 746 mmHg 43%
    18:00 +32°C° 0 mm 4 m/s 746 mmHg 45%
    19:00 +30°C° 0 mm 4 m/s 746 mmHg 49%
    20:00 +29°C° 0 mm 3 m/s 747 mmHg 54%
    21:00 +28°C° 0 mm 3 m/s 747 mmHg 58%
    22:00 +28°C° 0 mm 3 m/s 747 mmHg 58%
    23:00 +28°C° 0 mm 3 m/s 747 mmHg 58%

    30 Iunie, Duminică

    Timp Temperatura Precipitaţii Vânt Presiune Umiditate
    00:00 +27°C° 0 mm 2 m/s 747 mmHg 58%
    01:00 +27°C° 0 mm 2 m/s 747 mmHg 57%
    02:00 +27°C° 0 mm 2 m/s 747 mmHg 56%
    03:00 +27°C° 0 mm 2 m/s 746 mmHg 55%
    04:00 +28°C° 0 mm 2 m/s 747 mmHg 54%
    05:00 +28°C° 0 mm 2 m/s 747 mmHg 54%
    06:00 +28°C° 0 mm 2 m/s 747 mmHg 54%
    07:00 +29°C° 0 mm 2 m/s 748 mmHg 51%
    08:00 +30°C° 0 mm 3 m/s 748 mmHg 49%
    09:00 +31°C° 0 mm 3 m/s 748 mmHg 47%
    10:00 +32°C° 0 mm 4 m/s 748 mmHg 46%
    11:00 +33°C° 0 mm 4 m/s 748 mmHg 46%
    12:00 +33°C° 0 mm 4 m/s 748 mmHg 46%
    13:00 +33°C° 0 mm 4 m/s 748 mmHg 46%
    14:00 +33°C° 0 mm 4 m/s 748 mmHg 46%
    15:00 +32°C° 0 mm 4 m/s 748 mmHg 46%
    16:00 +32°C° 0 mm 4 m/s 748 mmHg 48%
    17:00 +30°C° 0 mm 3 m/s 748 mmHg 49%
    18:00 +29°C° 0 mm 3 m/s 748 mmHg 51%
    19:00 +29°C° 0 mm 3 m/s 748 mmHg 54%
    20:00 +28°C° 0 mm 3 m/s 748 mmHg 56%
    21:00 +27°C° 0 mm 2 m/s 749 mmHg 59%
    22:00 +27°C° 0 mm 2 m/s 749 mmHg 59%
    23:00 +27°C° 0 mm 2 m/s 748 mmHg 58%

    1 Iulie, Luni

    Timp Temperatura Precipitaţii Vânt Presiune Umiditate
    00:00 +27°C° 0 mm 1 m/s 748 mmHg 58%
    01:00 +26°C° 0 mm 1 m/s 748 mmHg 59%
    02:00 +26°C° 0 mm 1 m/s 748 mmHg 60%
    03:00 +26°C° 0 mm 1 m/s 748 mmHg 60%
    04:00 +26°C° 0 mm 1 m/s 748 mmHg 60%
    05:00 +26°C° 0 mm 1 m/s 748 mmHg 60%
    06:00 +27°C° 0 mm 1 m/s 748 mmHg 60%
    07:00 +28°C° 0 mm 1 m/s 748 mmHg 56%
    08:00 +29°C° 0 mm 2 m/s 749 mmHg 53%
    09:00 +30°C° 0 mm 2 m/s 749 mmHg 49%
    10:00 +30°C° 0 mm 2 m/s 748 mmHg 48%
    11:00 +31°C° 0 mm 3 m/s 748 mmHg 48%
    12:00 +31°C° 0 mm 3 m/s 748 mmHg 47%
    13:00 +31°C° 0 mm 3 m/s 748 mmHg 48%
    14:00 +31°C° 0 mm 3 m/s 747 mmHg 49%
    15:00 +31°C° 0 mm 3 m/s 747 mmHg 51%
    16:00 +30°C° 0 mm 2 m/s 747 mmHg 52%
    17:00 +29°C° 0 mm 2 m/s 747 mmHg 54%
    18:00 +29°C° 0 mm 1 m/s 747 mmHg 56%
    19:00 +28°C° 0 mm 1 m/s 747 mmHg 59%
    20:00 +28°C° 0 mm 1 m/s 747 mmHg 61%
    21:00 +25°C° 0 mm 0 m/s 747 mmHg 63%
    22:00 +25°C° 0 mm 0 m/s 747 mmHg 64%
    23:00 +24°C° 0 mm 0 m/s 747 mmHg 65%

    2 Iulie, Marţi

    Timp Temperatura Precipitaţii Vânt Presiune Umiditate
    00:00 +26°C° 0 mm 1 m/s 747 mmHg 65%
    01:00 +26°C° 0 mm 1 m/s 746 mmHg 68%
    02:00 +26°C° 0 mm 1 m/s 746 mmHg 70%
    03:00 +25°C° 0 mm 1 m/s 746 mmHg 72%
    04:00 +25°C° 0 mm 2 m/s 746 mmHg 71%
    05:00 +25°C° 0 mm 2 m/s 747 mmHg 71%
    06:00 +25°C° 0 mm 3 m/s 747 mmHg 71%
    07:00 +27°C° 0 mm 3 m/s 747 mmHg 66%
    08:00 +28°C° 0 mm 3 m/s 747 mmHg 62%
    09:00 +29°C° 0 mm 3 m/s 747 mmHg 58%
    10:00 +29°C° 0 mm 3 m/s 747 mmHg 58%
    11:00 +30°C° 0 mm 3 m/s 747 mmHg 58%
    12:00 +30°C° 0 mm 3 m/s 746 mmHg 57%
    13:00 +30°C° 0 mm 3 m/s 746 mmHg 58%
    14:00 +29°C° 0 mm 3 m/s 746 mmHg 59%
    15:00 +29°C° 0 mm 2 m/s 745 mmHg 60%
    16:00 +28°C° 0 mm 2 m/s 745 mmHg 62%
    17:00 +28°C° 0 mm 1 m/s 745 mmHg 64%
    18:00 +27°C° 0 mm 1 m/s 745 mmHg 66%
    19:00 +27°C° 0 mm 1 m/s 746 mmHg 67%
    20:00 +27°C° 0 mm 1 m/s 746 mmHg 67%
    21:00 +26°C° 0 mm 1 m/s 746 mmHg 68%
    22:00 +26°C° 0 mm 1 m/s 746 mmHg 68%
    23:00 +26°C° 0 mm 1 m/s 746 mmHg 67%
    Arată mai mult